Flag for Germany Weather past 2 weeks in Völklingen, Saarland, Germany

Now
32 °F

Light snow. Ice fog.


Feels Like: 27 °F
Forecast: 33 / 36 °F
Wind: 5 mph from Southwest

Location: Saarbruecken / Ensheim

Current Time: Jan 25, 2015 at 5:34:02 PM

Latest Report: Jan 25, 2015 at 5:20 PM


Visibility: 1 mi

Pressure: 30.39 "Hg

Humidity: 100%

Dew point: 32 °F

Location of VölklingenLocation

Historic Weather in Völklingen — Graph

°F

Völklingen temperature yesterday

Maximum temperature yesterday: 32 °F (at 10:50 AM)
Minimum temperature yesterday: 27 °F (at 8:50 PM)
Average temperature yesterday: 30 °F

Past Weeks' High & Low Weather Summary

 TemperatureHumidityPressure
High52 °F (Jan 10, 4:20 PM)100% (Jan 16, 10:50 AM)30.42 "Hg (Jan 16, 10:50 AM)
Low23 °F (Jan 25, 3:50 AM)40% (Jan 13, 12:20 PM)29.65 "Hg (Jan 15, 2:50 PM)
Average36 °F87%29.98 "Hg
* Reported Jan 10 4:20 PM — Jan 25 4:20 PM, Völklingen, Weather by CustomWeather, © 2014

Note: Actual official high and low records may vary slightly from our data, if they occured in-between our weather recording intervals... More about our weather records

Advertising

Völklingen weather history for previous 24 hours

 ConditionsComfort  
Time TempWeatherWind HumidityBarometerVisibility
4:20 PM
Jan 25
32 °FLight snow. Ice fog.2 mph100%30.39 "Hg1 mi
3:50 PM32 °FLight snow. Ice fog.3 mph100%30.39 "Hg2 mi
3:20 PM32 °FLight snow. Ice fog.3 mph100%30.39 "Hg2 mi
2:50 PM32 °FIce fog.3 mph100%30.39 "Hg2 mi
2:20 PM32 °FIce fog.5 mph100%30.39 "Hg2 mi
1:50 PM32 °FIce fog.1 mph93%30.39 "Hg1 mi
1:20 PM30 °FIce fog.3 mph100%30.39 "Hg1 mi
12:50 PM30 °FIce fog.2 mph100%30.42 "Hg1 mi
12:20 PM30 °FIce fog.No wind100%30.42 "Hg2 mi
11:50 AM30 °FIce fog.2 mph93%30.42 "Hg2 mi
11:20 AM28 °FIce fog.2 mph100%30.42 "Hg2 mi
10:50 AM28 °FIce fog.1 mph100%30.42 "Hg2 mi
10:20 AM28 °FIce fog.No wind93%30.42 "Hg2 mi
9:50 AM27 °FIce fog.2 mph100%30.42 "Hg2 mi
9:20 AM27 °FIce fog.No wind100%30.42 "Hg1 mi
8:50 AM27 °FIce fog.2 mph93%30.42 "Hg1 mi
8:20 AM25 °FIce fog.2 mph100%30.39 "Hg1 mi
7:50 AM25 °FIce fog.2 mph100%30.39 "Hg1 mi
7:20 AM25 °FIce fog.2 mph100%30.39 "Hg1 mi
6:50 AM25 °FIce fog.3 mph100%30.39 "Hg1 mi
6:20 AM25 °FIce fog.5 mph93%30.36 "Hg1 mi
5:50 AM25 °FIce fog.2 mph93%30.36 "Hg0 mi
5:20 AM25 °FIce fog.3 mph100%30.36 "Hg2 mi
4:20 AM25 °FIce fog.7 mph100%30.33 "Hg2 mi
3:50 AM23 °FIce fog.6 mph100%30.33 "Hg2 mi
3:20 AM25 °FIce fog.3 mph93%30.33 "Hg2 mi
2:50 AM25 °FIce fog.5 mph100%30.33 "Hg3 mi
2:20 AM25 °FIce fog.3 mph100%30.33 "Hg3 mi
1:50 AM25 °FIce fog.5 mph100%30.30 "Hg3 mi
1:20 AM25 °FPassing clouds.6 mph100%30.30 "Hg4 mi
12:50 AM27 °FPassing clouds.6 mph93%30.30 "Hg4 mi
12:20 AM27 °FPassing clouds.3 mph100%30.30 "Hg4 mi
11:50 PM
Jan 24
28 °FPassing clouds.7 mph93%30.27 "Hg4 mi
11:20 PM28 °FPassing clouds.6 mph100%30.27 "Hg4 mi
10:50 PM28 °FPassing clouds.6 mph93%30.27 "Hg4 mi
10:20 PM27 °FPassing clouds.6 mph100%30.24 "Hg4 mi
9:50 PM27 °FPassing clouds.6 mph100%30.24 "Hg4 mi
9:20 PM27 °FPassing clouds.8 mph100%30.24 "Hg4 mi
8:50 PM27 °FPassing clouds.6 mph93%30.24 "Hg4 mi
8:20 PM28 °FPassing clouds.8 mph93%30.21 "Hg4 mi
7:50 PM28 °FPassing clouds.5 mph93%30.21 "Hg4 mi
7:20 PM30 °FPassing clouds.5 mph100%30.18 "Hg4 mi
6:50 PM30 °FPartly cloudy.7 mph100%30.18 "Hg4 mi
6:20 PM30 °FIce fog.9 mph100%30.15 "Hg2 mi
5:50 PM30 °FIce fog.7 mph100%30.15 "Hg2 mi
5:20 PM30 °FIce fog.6 mph100%30.12 "Hg1 mi
Weather by CustomWeather, © 2014

See weather overviewHow to use our weather pages